This is the latest recevied weather packets stored in our database for station/object F5IOR-13. If no packets are shown the sender has not sent any weather packets the latest 10 day(s).
| Time | Temp. | Humidity | Pressure | Rain* | Wind** | Luminosity | Snow |
|---|---|---|---|---|---|---|---|
| 1777902023 | 16.67° C | 72% | 983.4 hPa | 9.14 mm | - | - | - |
| 1777898423 | 16.67° C | 71% | 984 hPa | 9.14 mm | - | - | - |
| 1777896623 | 16.67° C | 71% | 984.6 hPa | 9.14 mm | - | - | - |
| 1777893023 | 15.56° C | 70% | 984.9 hPa | 9.65 mm | - | - | - |
| 1777889423 | 14.44° C | 76% | 985.3 hPa | 9.65 mm | - | - | - |
| 1777887623 | 14.44° C | 75% | 985.4 hPa | 9.65 mm | - | - | - |
| 1777886663 | 13.89° C | 73% | 985.4 hPa | 9.65 mm | - | - | - |
| 1777885703 | 13.89° C | 74% | 985.4 hPa | 9.65 mm | - | - | - |
| 1777884743 | 13.89° C | 74% | 985.3 hPa | 9.65 mm | - | - | - |
| 1777883783 | 13.89° C | 74% | 985.3 hPa | 9.65 mm | - | - | - |
| 1777883303 | 12.78° C | 78% | 985.2 hPa | 11.68 mm | - | - | - |
| 1777882823 | 12.78° C | 78% | 985.2 hPa | 11.68 mm | - | - | - |
| 1777882343 | 12.78° C | 78% | 985.2 hPa | 11.68 mm | - | - | - |
| 1777881863 | 12.78° C | 80% | 985.2 hPa | 11.68 mm | - | - | - |
| 1777881623 | 12.78° C | 80% | 985.2 hPa | 11.68 mm | - | - | - |
| 1777881383 | 12.78° C | 83% | 985.1 hPa | 11.68 mm | - | - | - |
| 1777881143 | 12.78° C | 83% | 985.1 hPa | 11.68 mm | - | - | - |
| 1777880663 | 12.78° C | 83% | 985.1 hPa | 11.68 mm | - | - | - |
| 1777880423 | 12.78° C | 83% | 985.1 hPa | 11.68 mm | - | - | - |
| 1777880303 | 12.78° C | 83% | 985.1 hPa | 11.68 mm | - | - | - |
| 1777880243 | 12.78° C | 83% | 985.1 hPa | 11.68 mm | - | - | - |
| 1777880183 | 12.78° C | 83% | 985.1 hPa | 11.68 mm | - | - | - |
| 1777880123 | 12.78° C | 83% | 985.1 hPa | 11.68 mm | - | - | - |
| 1777837107 | 16.11° C | 55% | 984.6 hPa | 3.56 mm | - | - | - |
| 1777835307 | 16.67° C | 54% | 984.3 hPa | 3.56 mm | - | - | - |
* Rain latest hour (hover to see other rain measurements)
** Current wind speed in m/s (hover to see current wind gust speed)